Dades meteomassalio
Diari Summary for Maig 31, 2017 Units:  English    Metric   Both
« Previous Day
Next Day »
Diari Semanal Mensual Anual Personalitzat
  Maxima: Minima: Mijana:
Temperatura: TemperatureC °F 13.4 °F 20.9 °F
Rosada: DewpointC °F 10.3 °F 12.5 °F
Humitat: Humidity % 32 % 61 %
Velocitat del vent: WindSpeedKMH mph 0.0 mph 5.7 mph
Racha vent: WindSpeedGustKMH mph - -
Vent:- - SSE
Pressio: PressurehPa in 1015.5 in -
Pluja: 0.0 in    
Historical Graphs
 
 
Tabular Data for Maig 31, 2017
Time Temperature Dew Point Pressure Wind Wind Speed Wind Gust Humidity Rainfall Rate (Hourly) solar Conditions
TemperatureC °F DewpointC °F PressurehPa in Calm     Humidity % HourlyPrecipMM in SolarRadiationWatts/m^2 W/m2 Conditions
00:00 17.9 °F 12.4 °F 1017.8 in Calm     70 % 0.0 in 0.0 W/m2 CLR
00:05 17.7 °F 12.3 °F 1017.8 in Calm     71 % 0.0 in 0.0 W/m2 CLR
00:06 17.6 °F 12.3 °F 1017.8 in Calm     71 % 0.0 in 0.0 W/m2 CLR
00:11 17.3 °F 12.2 °F 1017.8 in Calm     72 % 0.0 in 0.0 W/m2 CLR
00:16 17.1 °F 12.2 °F 1017.8 in Calm     73 % 0.0 in 0.0 W/m2 CLR
00:21 16.9 °F 12.2 °F 1017.8 in Calm     74 % 0.0 in 0.0 W/m2 CLR
00:26 16.7 °F 12.1 °F 1017.8 in Calm     74 % 0.0 in 0.0 W/m2 CLR
00:31 16.6 °F 12.1 °F 1017.8 in Calm     75 % 0.0 in 0.0 W/m2 CLR
00:36 16.5 °F 12.1 °F 1017.8 in Calm     75 % 0.0 in 0.0 W/m2 CLR
00:41 16.4 °F 12.2 °F 1017.8 in Calm     76 % 0.0 in 0.0 W/m2 CLR
00:46 16.3 °F 12.1 °F 1017.8 in Calm     76 % 0.0 in 0.0 W/m2 CLR
00:51 16.1 °F 11.7 °F 1017.8 in Calm     75 % 0.0 in 0.0 W/m2 CLR
00:56 16.0 °F 11.9 °F 1017.8 in Calm     77 % 0.0 in 0.0 W/m2 CLR
01:01 15.9 °F 11.8 °F 1017.8 in Calm     77 % 0.0 in 0.0 W/m2 CLR
01:06 15.8 °F 11.8 °F 1017.8 in Calm     77 % 0.0 in 0.0 W/m2 CLR
01:11 15.8 °F 11.6 °F 1017.8 in Calm     76 % 0.0 in 0.0 W/m2 CLR
01:16 15.9 °F 11.7 °F 1017.8 in Calm     76 % 0.0 in 0.0 W/m2 CLR
01:21 15.9 °F 11.7 °F 1017.8 in Calm     76 % 0.0 in 0.0 W/m2 CLR
01:26 15.9 °F 11.7 °F 1017.8 in Calm     76 % 0.0 in 0.0 W/m2 CLR
01:31 15.8 °F 11.8 °F 1017.8 in Calm     77 % 0.0 in 0.0 W/m2 CLR
01:36 15.7 °F 11.8 °F 1017.8 in Calm     78 % 0.0 in 0.0 W/m2 CLR
01:41 15.6 °F 11.7 °F 1017.8 in Calm     78 % 0.0 in 0.0 W/m2 CLR
01:46 15.4 °F 11.8 °F 1017.8 in Calm     79 % 0.0 in 0.0 W/m2 CLR
01:51 15.3 °F 11.7 °F 1017.8 in Calm     79 % 0.0 in 0.0 W/m2 CLR
01:56 15.2 °F 11.6 °F 1017.8 in Calm     79 % 0.0 in 0.0 W/m2 CLR
02:01 15.2 °F 11.7 °F 1017.8 in Calm     80 % 0.0 in 0.0 W/m2 CLR
02:06 15.1 °F 11.7 °F 1017.8 in Calm     80 % 0.0 in 0.0 W/m2 CLR
02:11 15.1 °F 11.7 °F 1017.8 in Calm     80 % 0.0 in 0.0 W/m2 CLR
02:16 15.1 °F 11.6 °F 1017.8 in Calm     80 % 0.0 in 0.0 W/m2 CLR
02:21 14.9 °F 11.4 °F 1017.8 in Calm     80 % 0.0 in 0.0 W/m2 CLR
02:26 14.7 °F 11.4 °F 1017.8 in Calm     81 % 0.0 in 0.0 W/m2 CLR
02:31 14.5 °F 11.4 °F 1017.8 in Calm     82 % 0.0 in 0.0 W/m2 CLR
02:36 14.4 °F 11.6 °F 1017.8 in Calm     83 % 0.0 in 0.0 W/m2 CLR
02:41 14.3 °F 11.4 °F 1017.8 in Calm     83 % 0.0 in 0.0 W/m2 CLR
02:46 14.2 °F 11.4 °F 1017.8 in Calm     83 % 0.0 in 0.0 W/m2 CLR
02:51 14.1 °F 11.3 °F 1017.8 in Calm     83 % 0.0 in 0.0 W/m2 CLR
02:56 14.1 °F 11.4 °F 1017.8 in Calm     84 % 0.0 in 0.0 W/m2 CLR
03:01 14.1 °F 11.6 °F 1017.8 in Calm     85 % 0.0 in 0.0 W/m2 CLR
03:06 14.1 °F 11.4 °F 1017.8 in Calm     84 % 0.0 in 0.0 W/m2 CLR
03:11 14.0 °F 11.3 °F 1017.8 in Calm     84 % 0.0 in 0.0 W/m2 CLR
03:16 14.0 °F 11.3 °F 1017.8 in Calm     84 % 0.0 in 0.0 W/m2 CLR
03:21 13.9 °F 11.3 °F 1017.8 in Calm     84 % 0.0 in 0.0 W/m2 CLR
03:26 13.9 °F 11.3 °F 1018.2 in Calm     84 % 0.0 in 0.0 W/m2 CLR
03:31 13.9 °F 11.2 °F 1018.2 in Calm     84 % 0.0 in 0.0 W/m2 CLR
03:36 13.9 °F 11.4 °F 1018.2 in Calm     85 % 0.0 in 0.0 W/m2 CLR
03:41 13.8 °F 11.3 °F 1018.2 in Calm     85 % 0.0 in 0.0 W/m2 CLR
03:46 13.8 °F 11.2 °F 1018.2 in Calm     84 % 0.0 in 0.0 W/m2 CLR
03:51 13.8 °F 11.2 °F 1018.2 in Calm     84 % 0.0 in 0.0 W/m2 CLR
03:56 13.9 °F 11.2 °F 1018.2 in Calm     84 % 0.0 in 0.0 W/m2 CLR
04:01 13.9 °F 11.2 °F 1018.2 in Calm     84 % 0.0 in 0.0 W/m2 CLR
04:06 14.0 °F 11.3 °F 1018.2 in Calm     84 % 0.0 in 0.0 W/m2 CLR
04:11 14.1 °F 11.4 °F 1018.2 in Calm     84 % 0.0 in 0.0 W/m2 CLR
04:16 14.2 °F 11.6 °F 1018.2 in Calm     84 % 0.0 in 0.0 W/m2 CLR
04:21 14.3 °F 11.6 °F 1018.2 in Calm     84 % 0.0 in 0.0 W/m2 CLR
04:26 14.3 °F 11.4 °F 1018.2 in Calm     83 % 0.0 in 0.0 W/m2 CLR
04:31 14.3 °F 11.4 °F 1018.2 in Calm     83 % 0.0 in 0.0 W/m2 CLR
04:36 14.3 °F 11.5 °F 1018.5 in Calm     83 % 0.0 in 0.0 W/m2 CLR
04:41 14.4 °F 11.6 °F 1018.5 in Calm     83 % 0.0 in 0.0 W/m2 CLR
04:46 14.4 °F 11.6 °F 1018.5 in Calm     83 % 0.0 in 0.0 W/m2 CLR
04:51 14.4 °F 11.6 °F 1018.5 in Calm     83 % 0.0 in 0.0 W/m2 CLR
04:56 14.4 °F 11.6 °F 1018.5 in Calm     83 % 0.0 in 0.0 W/m2 CLR
05:01 14.4 °F 11.6 °F 1018.5 in Calm     83 % 0.0 in 0.0 W/m2 CLR
05:06 14.5 °F 11.7 °F 1018.5 in Calm     83 % 0.0 in 0.0 W/m2 CLR
05:11 14.6 °F 11.8 °F 1018.5 in Calm     83 % 0.0 in 0.0 W/m2 CLR
05:16 14.7 °F 11.8 °F 1018.5 in Calm     83 % 0.0 in 0.0 W/m2 CLR
05:21 14.7 °F 11.9 °F 1018.5 in Calm     83 % 0.0 in 0.0 W/m2 CLR
05:26 14.7 °F 11.8 °F 1018.5 in Calm     83 % 0.0 in 0.0 W/m2 CLR
05:31 14.6 °F 11.8 °F 1018.5 in Calm     83 % 0.0 in 0.0 W/m2 CLR
05:36 14.5 °F 11.7 °F 1018.5 in Calm     83 % 0.0 in 0.0 W/m2 CLR
05:41 14.5 °F 11.8 °F 1018.5 in Calm     84 % 0.0 in 0.0 W/m2 CLR
05:46 14.5 °F 11.7 °F 1018.5 in Calm     83 % 0.0 in 0.0 W/m2 CLR
05:51 14.6 °F 11.7 °F 1018.5 in Calm     83 % 0.0 in 0.0 W/m2 CLR
05:56 14.4 °F 11.4 °F 1018.5 in Calm     82 % 0.0 in 0.0 W/m2 CLR
06:01 14.3 °F 11.2 °F 1018.5 in Calm     82 % 0.0 in 0.0 W/m2 CLR
06:06 14.2 °F 11.4 °F 1018.5 in Calm     83 % 0.0 in 0.0 W/m2 CLR
06:11 14.1 °F 11.4 °F 1018.5 in Calm     84 % 0.0 in 0.0 W/m2 CLR
06:16 14.1 °F 11.3 °F 1018.5 in Calm     83 % 0.0 in 0.0 W/m2 CLR
06:21 14.1 °F 11.2 °F 1018.5 in Calm     83 % 0.0 in 0.0 W/m2 OVC
06:26 14.0 °F 11.2 °F 1018.5 in Calm     83 % 0.0 in 0.0 W/m2 OVC
06:31 14.0 °F 11.3 °F 1018.8 in Calm     84 % 0.0 in 0.0 W/m2 OVC
06:36 13.9 °F 11.2 °F 1018.8 in Calm     84 % 0.0 in 5.0 W/m2 OVC
06:41 13.8 °F 11.1 °F 1018.8 in Calm     84 % 0.0 in 7.0 W/m2 BKN
06:46 13.7 °F 11.2 °F 1018.8 in Calm     85 % 0.0 in 11.0 W/m2 BKN
06:51 13.6 °F 11.1 °F 1018.8 in Calm     85 % 0.0 in 16.0 W/m2 BKN
06:56 13.4 °F 10.9 °F 1018.8 in Calm     85 % 0.0 in 21.0 W/m2 BKN
07:01 13.5 °F 11.2 °F 1018.8 in Calm     86 % 0.0 in 26.0 W/m2 BKN
07:06 13.5 °F 11.2 °F 1018.8 in Calm     86 % 0.0 in 32.0 W/m2 BKN
07:11 13.6 °F 11.3 °F 1018.8 in Calm     86 % 0.0 in 44.0 W/m2 BKN
07:17 13.7 °F 11.4 °F 1018.8 in Calm     86 % 0.0 in 51.0 W/m2 SCT
07:22 13.9 °F 11.6 °F 1019.2 in Calm     86 % 0.0 in 58.0 W/m2 SCT
07:27 14.1 °F 11.6 °F 1019.2 in Calm     85 % 0.0 in 69.0 W/m2 FEW
07:32 14.2 °F 11.7 °F 1019.2 in Calm     85 % 0.0 in 81.0 W/m2 FEW
07:37 14.4 °F 11.9 °F 1019.2 in Calm     85 % 0.0 in 91.0 W/m2 FEW
07:42 14.6 °F 12.1 °F 1019.2 in Calm     85 % 0.0 in 107.0 W/m2 CLR
07:47 14.8 °F 12.3 °F 1019.2 in Calm     85 % 0.0 in 123.0 W/m2 CLR
07:52 15.2 °F 12.6 °F 1019.2 in Calm     84 % 0.0 in 139.0 W/m2 CLR
07:57 15.6 °F 12.6 °F 1019.2 in Calm     82 % 0.0 in 158.0 W/m2 CLR
08:02 15.9 °F 12.5 °F 1019.2 in Calm     80 % 0.0 in 172.0 W/m2 CLR
08:07 16.2 °F 12.8 °F 1019.2 in Calm     80 % 0.0 in 229.0 W/m2 CLR
08:12 16.6 °F 12.9 °F 1019.2 in Calm     79 % 0.0 in 255.0 W/m2 CLR
08:17 17.2 °F 13.1 °F 1019.2 in Calm     77 % 0.0 in 130.0 W/m2 CLR
08:22 17.6 °F 12.9 °F 1019.5 in Calm     74 % 0.0 in 127.0 W/m2 CLR
08:27 17.8 °F 12.9 °F 1019.5 in Calm     73 % 0.0 in 292.0 W/m2 CLR
08:32 18.2 °F 13.1 °F 1019.5 in Calm     72 % 0.0 in 218.0 W/m2 CLR
08:37 18.3 °F 13.0 °F 1019.5 in Calm     71 % 0.0 in 134.0 W/m2 CLR
08:42 18.3 °F 13.0 °F 1019.5 in Calm     71 % 0.0 in 121.0 W/m2 CLR
08:47 18.3 °F 13.2 °F 1019.5 in SSW 6.4 mph 6.4 mph 72 % 0.0 in 114.0 W/m2 CLR
08:52 18.4 °F 13.4 °F 1019.5 in Calm     73 % 0.0 in 316.0 W/m2 CLR
08:57 18.8 °F 14.1 °F 1019.5 in WSW 5.6 mph 5.6 mph 74 % 0.0 in 364.0 W/m2 CLR
09:02 19.1 °F 14.1 °F 1019.5 in West 7.4 mph 7.4 mph 73 % 0.0 in 403.0 W/m2 CLR
09:07 19.3 °F 14.3 °F 1019.5 in Calm     73 % 0.0 in 455.0 W/m2 CLR
09:12 19.6 °F 14.4 °F 1019.5 in WSW 3.7 mph 3.7 mph 72 % 0.0 in 504.0 W/m2 CLR
09:17 19.9 °F 14.5 °F 1019.5 in West 5.6 mph 5.6 mph 71 % 0.0 in 371.0 W/m2 CLR
09:22 19.9 °F 14.5 °F 1019.5 in SW 3.7 mph   71 % 0.0 in 274.0 W/m2 CLR
09:27 19.9 °F 14.3 °F 1019.5 in WSW 7.4 mph 7.4 mph 70 % 0.0 in 251.0 W/m2 CLR
09:32 19.9 °F 14.5 °F 1019.5 in WNW 9.3 mph 9.3 mph 71 % 0.0 in 299.0 W/m2 CLR
09:37 19.9 °F 14.5 °F 1019.5 in WNW 1.9 mph   71 % 0.0 in 269.0 W/m2 CLR
09:42 20.0 °F 14.3 °F 1019.5 in WSW 6.4 mph 6.4 mph 70 % 0.0 in 374.0 W/m2 CLR
09:47 20.2 °F 14.5 °F 1019.5 in West 8.0 mph 8.0 mph 70 % 0.0 in 294.0 W/m2 CLR
09:52 20.2 °F 14.8 °F 1019.5 in NW 7.4 mph 7.4 mph 71 % 0.0 in 522.0 W/m2 CLR
09:57 20.4 °F 14.6 °F 1019.5 in West 13.0 mph 13.0 mph 69 % 0.0 in 529.0 W/m2 CLR
10:02 20.4 °F 14.6 °F 1019.5 in West 9.3 mph 9.3 mph 69 % 0.0 in 538.0 W/m2 CLR
10:07 20.7 °F 14.6 °F 1019.5 in WNW 11.3 mph 11.3 mph 68 % 0.0 in 547.0 W/m2 CLR
10:12 20.9 °F 14.8 °F 1019.2 in West 6.4 mph 6.4 mph 68 % 0.0 in 555.0 W/m2 CLR
10:17 21.1 °F 14.7 °F 1019.5 in WNW 6.4 mph 6.4 mph 67 % 0.0 in 580.0 W/m2 CLR
10:22 21.2 °F 14.6 °F 1019.5 in Calm     66 % 0.0 in 596.0 W/m2 CLR
10:27 21.5 °F 14.7 °F 1019.5 in SW 5.6 mph 5.6 mph 65 % 0.0 in 570.0 W/m2 CLR
10:32 21.7 °F 14.6 °F 1019.2 in WNW 5.6 mph 5.6 mph 64 % 0.0 in 633.0 W/m2 CLR
10:37 21.8 °F 14.7 °F 1019.5 in Calm     64 % 0.0 in 638.0 W/m2 CLR
10:42 22.2 °F 14.8 °F 1019.2 in SSW 5.6 mph 5.6 mph 63 % 0.0 in 647.0 W/m2 CLR
10:47 22.2 °F 14.6 °F 1019.2 in Calm     62 % 0.0 in 691.0 W/m2 CLR
10:52 22.7 °F 15.0 °F 1019.2 in Calm     62 % 0.0 in 728.0 W/m2 CLR
10:57 23.3 °F 15.1 °F 1019.2 in NNW 1.6 mph 1.6 mph 60 % 0.0 in 682.0 W/m2 CLR
11:02 23.4 °F 14.7 °F 1019.2 in Calm     58 % 0.0 in 698.0 W/m2 CLR
11:07 23.6 °F 15.1 °F 1019.2 in Calm     59 % 0.0 in 687.0 W/m2 CLR
11:12 23.9 °F 14.8 °F 1019.2 in Calm     57 % 0.0 in 744.0 W/m2 CLR
11:17 24.1 °F 15.1 °F 1019.2 in Calm   0.6 mph 57 % 0.0 in 752.0 W/m2 CLR
11:22 24.3 °F 14.9 °F 1019.2 in NNE 8.0 mph 8.0 mph 56 % 0.0 in 788.0 W/m2 CLR
11:27 24.2 °F 14.6 °F 1019.2 in NNE 7.4 mph 7.4 mph 55 % 0.0 in 846.0 W/m2 CLR
11:32 24.0 °F 14.7 °F 1019.2 in Calm     56 % 0.0 in 842.0 W/m2 CLR
11:37 24.2 °F 14.3 °F 1018.8 in East 9.3 mph 9.3 mph 54 % 0.0 in 860.0 W/m2 CLR
11:38 24.2 °F 14.3 °F 1019.2 in East 9.3 mph 9.3 mph 54 % 0.0 in 860.0 W/m2 CLR
11:43 24.3 °F 14.4 °F 1019.2 in Calm     54 % 0.0 in 907.0 W/m2 CLR
11:48 24.3 °F 14.4 °F 1018.8 in Calm     54 % 0.0 in 904.0 W/m2 CLR
11:53 24.4 °F 14.8 °F 1018.8 in Calm     55 % 0.0 in 854.0 W/m2 CLR
11:58 24.8 °F 15.1 °F 1018.8 in Calm     55 % 0.0 in 868.0 W/m2 CLR
12:03 25.0 °F 15.1 °F 1018.8 in Calm     54 % 0.0 in 860.0 W/m2 CLR
12:08 25.1 °F 14.8 °F 1018.8 in Calm     53 % 0.0 in 860.0 W/m2 CLR
12:13 25.1 °F 13.9 °F 1018.8 in ENE 1.9 mph 1.9 mph 50 % 0.0 in 849.0 W/m2 CLR
12:18 25.4 °F 13.6 °F 1018.8 in NE 9.3 mph 9.3 mph 48 % 0.0 in 851.0 W/m2 CLR
12:23 25.4 °F 13.3 °F 1018.8 in ENE 9.3 mph 9.3 mph 47 % 0.0 in 851.0 W/m2 CLR
12:28 25.2 °F 13.4 °F 1018.5 in NE 3.7 mph   48 % 0.0 in 868.0 W/m2 CLR
12:33 25.4 °F 13.3 °F 1018.5 in ENE 7.4 mph 7.4 mph 47 % 0.0 in 904.0 W/m2 CLR
12:38 25.6 °F 13.1 °F 1018.5 in NNE 5.6 mph 5.6 mph 46 % 0.0 in 891.0 W/m2 CLR
12:43 25.8 °F 13.3 °F 1018.5 in ENE 11.1 mph   46 % 0.0 in 889.0 W/m2 CLR
12:48 25.8 °F 13.0 °F 1018.5 in NE 12.9 mph 12.9 mph 45 % 0.0 in 954.0 W/m2 CLR
12:53 26.1 °F 13.2 °F 1018.5 in NE 4.8 mph 4.8 mph 45 % 0.0 in 947.0 W/m2 CLR
12:58 26.3 °F 13.1 °F 1018.5 in NE 3.7 mph   44 % 0.0 in 995.0 W/m2 CLR
13:03 26.4 °F 13.5 °F 1018.5 in NNE 1.6 mph 1.6 mph 45 % 0.0 in 979.0 W/m2 CLR
13:08 26.6 °F 13.7 °F 1018.2 in NE 16.7 mph 16.7 mph 45 % 0.0 in 970.0 W/m2 CLR
13:13 26.4 °F 13.5 °F 1018.2 in East 14.8 mph 14.8 mph 45 % 0.0 in 935.0 W/m2 CLR
13:18 26.4 °F 13.6 °F 1018.2 in Calm     45 % 0.0 in 947.0 W/m2 CLR
13:23 26.4 °F 13.6 °F 1018.2 in Calm     45 % 0.0 in 977.0 W/m2 CLR
13:28 26.8 °F 13.6 °F 1018.2 in NNE 14.8 mph 14.8 mph 44 % 0.0 in 974.0 W/m2 CLR
13:33 26.8 °F 13.5 °F 1018.2 in North 18.5 mph 18.5 mph 44 % 0.0 in 949.0 W/m2 CLR
13:34 26.7 °F 13.4 °F 1018.2 in NNW 11.1 mph 11.1 mph 44 % 0.0 in 954.0 W/m2 CLR
13:39 26.8 °F 13.2 °F 1017.8 in North 14.8 mph 14.8 mph 43 % 0.0 in 977.0 W/m2 CLR
13:44 26.9 °F 13.3 °F 1017.8 in North 7.4 mph 7.4 mph 43 % 0.0 in 954.0 W/m2 CLR
13:49 27.0 °F 13.0 °F 1017.8 in Calm     42 % 0.0 in 316.0 W/m2 CLR
13:54 27.0 °F 13.0 °F 1017.8 in ESE 4.8 mph 4.8 mph 42 % 0.0 in 821.0 W/m2 CLR
13:59 27.1 °F 13.1 °F 1017.5 in East 13.0 mph 13.0 mph 42 % 0.0 in 942.0 W/m2 CLR
14:04 27.6 °F 13.2 °F 1017.5 in NE 9.3 mph 9.3 mph 41 % 0.0 in 963.0 W/m2 CLR
14:09 27.8 °F 13.0 °F 1017.5 in Calm     40 % 0.0 in 969.0 W/m2 CLR
14:14 27.8 °F 12.9 °F 1017.5 in Calm     40 % 0.0 in 954.0 W/m2 CLR
14:19 27.8 °F 13.0 °F 1017.2 in Calm     40 % 0.0 in 940.0 W/m2 CLR
14:24 27.8 °F 12.6 °F 1017.2 in ENE 18.5 mph 18.5 mph 39 % 0.0 in 788.0 W/m2 CLR
14:29 27.8 °F 12.2 °F 1017.2 in NE 9.7 mph 9.7 mph 38 % 0.0 in 1000.0 W/m2 CLR
14:34 28.1 °F 12.4 °F 1017.2 in ENE 5.6 mph 5.6 mph 38 % 0.0 in 997.0 W/m2 CLR
14:39 28.1 °F 12.0 °F 1016.8 in SE 13.0 mph 13.0 mph 37 % 0.0 in 336.0 W/m2 CLR
14:44 27.9 °F 12.3 °F 1016.8 in NE 13.0 mph 13.0 mph 38 % 0.0 in 977.0 W/m2 CLR
14:49 28.3 °F 11.8 °F 1016.8 in NE 9.7 mph 9.7 mph 36 % 0.0 in 1023.0 W/m2 CLR
14:54 28.5 °F 11.6 °F 1016.8 in NE 18.5 mph 18.5 mph 35 % 0.0 in 896.0 W/m2 CLR
14:55 28.4 °F 11.5 °F 1016.8 in ENE 7.4 mph 7.4 mph 35 % 0.0 in 896.0 W/m2 CLR
15:00 28.2 °F 11.3 °F 1016.8 in ENE 13.0 mph 13.0 mph 35 % 0.0 in 197.0 W/m2 CLR
15:05 27.8 °F 11.4 °F 1016.5 in NE 7.4 mph 7.4 mph 36 % 0.0 in 895.0 W/m2 CLR
15:10 27.7 °F 10.9 °F 1016.5 in NE 20.4 mph 20.4 mph 35 % 0.0 in 895.0 W/m2 CLR
15:15 28.1 °F 11.2 °F 1016.5 in NNE 13.0 mph 13.0 mph 35 % 0.0 in 942.0 W/m2 CLR
15:20 28.4 °F 11.0 °F 1016.5 in NNE 5.6 mph 5.6 mph 34 % 0.0 in 939.0 W/m2 CLR
15:25 28.5 °F 11.1 °F 1016.5 in ESE 14.5 mph 14.5 mph 34 % 0.0 in 220.0 W/m2 CLR
15:30 28.4 °F 11.1 °F 1016.1 in SE 11.3 mph 11.3 mph 34 % 0.0 in 944.0 W/m2 CLR
15:35 28.3 °F 10.9 °F 1016.1 in SE 18.5 mph 18.5 mph 34 % 0.0 in 925.0 W/m2 CLR
15:40 28.4 °F 10.6 °F 1016.1 in SSW 14.8 mph 14.8 mph 33 % 0.0 in 965.0 W/m2 CLR
15:45 28.8 °F 10.9 °F 1016.1 in Calm     33 % 0.0 in 984.0 W/m2 CLR
15:50 29.2 °F 10.8 °F 1016.1 in SE 11.1 mph 11.1 mph 32 % 0.0 in 965.0 W/m2 CLR
15:55 28.6 °F 10.3 °F 1015.8 in East 14.8 mph 14.8 mph 32 % 0.0 in 315.0 W/m2 CLR
16:00 28.2 °F 10.4 °F 1015.8 in SSE 18.5 mph 18.5 mph 33 % 0.0 in 960.0 W/m2 CLR
16:05 27.8 °F 10.9 °F 1016.1 in SE 18.5 mph 18.5 mph 35 % 0.0 in 392.0 W/m2 CLR
16:10 27.7 °F 11.3 °F 1015.8 in SE 14.8 mph 14.8 mph 36 % 0.0 in 485.0 W/m2 CLR
16:16 27.9 °F 11.4 °F 1015.8 in SE 14.5 mph 14.5 mph 36 % 0.0 in 867.0 W/m2 CLR
16:21 28.2 °F 11.7 °F 1016.1 in ESE 29.0 mph 29.0 mph 36 % 0.0 in 853.0 W/m2 CLR
16:26 27.8 °F 11.8 °F 1015.8 in East 20.4 mph 20.4 mph 37 % 0.0 in 858.0 W/m2 CLR
16:31 28.0 °F 11.9 °F 1015.8 in ESE 18.5 mph 18.5 mph 37 % 0.0 in 826.0 W/m2 CLR
16:36 28.2 °F 11.7 °F 1015.8 in SE 14.8 mph 14.8 mph 36 % 0.0 in 807.0 W/m2 CLR
16:41 28.2 °F 11.7 °F 1015.8 in SE 14.8 mph 14.8 mph 36 % 0.0 in 795.0 W/m2 CLR
16:46 27.8 °F 11.8 °F 1015.8 in SSE 14.8 mph 14.8 mph 37 % 0.0 in 793.0 W/m2 CLR
16:51 27.3 °F 11.7 °F 1015.8 in SE 24.1 mph 24.1 mph 38 % 0.0 in 206.0 W/m2 CLR
16:56 26.9 °F 11.8 °F 1015.8 in South 22.5 mph 22.5 mph 39 % 0.0 in 239.0 W/m2 CLR
17:01 26.9 °F 11.8 °F 1015.5 in SSE 16.7 mph 16.7 mph 39 % 0.0 in 262.0 W/m2 CLR
17:06 26.6 °F 11.9 °F 1015.5 in SSE 31.5 mph 31.5 mph 40 % 0.0 in 355.0 W/m2 CLR
17:11 26.6 °F 12.2 °F 1015.8 in South 25.9 mph 25.9 mph 41 % 0.0 in 700.0 W/m2 CLR
17:16 26.7 °F 13.4 °F 1015.8 in SSW 25.9 mph 25.9 mph 44 % 0.0 in 744.0 W/m2 CLR
17:21 26.3 °F 12.4 °F 1015.8 in South 25.9 mph 25.9 mph 42 % 0.0 in 701.0 W/m2 CLR
17:26 26.2 °F 12.6 °F 1015.8 in South 31.5 mph 31.5 mph 43 % 0.0 in 715.0 W/m2 CLR
17:31 26.2 °F 12.7 °F 1015.8 in South 31.5 mph 31.5 mph 43 % 0.0 in 724.0 W/m2 CLR
17:36 26.1 °F 12.8 °F 1016.1 in South 31.5 mph 31.5 mph 44 % 0.0 in 204.0 W/m2 CLR
17:41 25.6 °F 12.1 °F 1016.1 in SSW 25.9 mph 25.9 mph 43 % 0.0 in 195.0 W/m2 CLR
17:46 25.4 °F 12.2 °F 1016.5 in SSW 33.3 mph 33.3 mph 44 % 0.0 in 192.0 W/m2 CLR
17:51 25.3 °F 12.2 °F 1016.5 in South 18.5 mph 18.5 mph 44 % 0.0 in 176.0 W/m2 CLR
17:56 25.4 °F 12.3 °F 1016.5 in South 18.5 mph 18.5 mph 44 % 0.0 in 160.0 W/m2 CLR
18:01 25.5 °F 12.3 °F 1016.5 in SSE 20.4 mph 20.4 mph 44 % 0.0 in 156.0 W/m2 CLR
18:06 25.3 °F 12.2 °F 1016.5 in SSW 20.4 mph 20.4 mph 44 % 0.0 in 169.0 W/m2 CLR
18:11 25.3 °F 12.2 °F 1016.5 in SE 18.5 mph 18.5 mph 44 % 0.0 in 209.0 W/m2 CLR
18:16 25.5 °F 12.3 °F 1016.5 in SSW 18.5 mph 18.5 mph 44 % 0.0 in 473.0 W/m2 CLR
18:21 25.6 °F 12.4 °F 1016.5 in South 22.2 mph 22.2 mph 44 % 0.0 in 244.0 W/m2 CLR
18:26 25.3 °F 12.5 °F 1016.5 in South 22.2 mph 22.2 mph 45 % 0.0 in 457.0 W/m2 CLR
18:31 25.2 °F 13.1 °F 1016.5 in South 18.5 mph 18.5 mph 47 % 0.0 in 148.0 W/m2 CLR
18:36 25.1 °F 12.9 °F 1016.8 in SSW 16.7 mph 16.7 mph 47 % 0.0 in 88.0 W/m2 CLR
18:41 24.8 °F 12.8 °F 1016.8 in SSE 13.0 mph 13.0 mph 47 % 0.0 in 98.0 W/m2 CLR
18:46 24.6 °F 12.8 °F 1016.5 in SSW 18.5 mph 18.5 mph 48 % 0.0 in 162.0 W/m2 CLR
18:51 24.5 °F 12.8 °F 1016.5 in SSW 20.4 mph 20.4 mph 48 % 0.0 in 216.0 W/m2 CLR
18:56 24.4 °F 12.7 °F 1016.8 in South 20.4 mph 20.4 mph 48 % 0.0 in 171.0 W/m2 CLR
19:01 24.3 °F 12.6 °F 1016.8 in SSE 18.5 mph 18.5 mph 48 % 0.0 in 162.0 W/m2 CLR
19:06 24.2 °F 12.5 °F 1016.8 in SSW 18.5 mph 18.5 mph 48 % 0.0 in 127.0 W/m2 CLR
19:11 24.2 °F 12.4 °F 1016.8 in SSW 24.1 mph 24.1 mph 48 % 0.0 in 93.0 W/m2 CLR
19:16 23.9 °F 12.6 °F 1016.8 in South 18.5 mph 18.5 mph 49 % 0.0 in 70.0 W/m2 CLR
19:21 23.8 °F 12.7 °F 1017.2 in South 20.4 mph 20.4 mph 50 % 0.0 in 49.0 W/m2 FEW
19:26 23.7 °F 12.6 °F 1017.2 in SSW 13.0 mph 13.0 mph 50 % 0.0 in 46.0 W/m2 SCT
19:31 23.6 °F 12.6 °F 1017.2 in South 13.0 mph 13.0 mph 50 % 0.0 in 46.0 W/m2 SCT
19:36 23.6 °F 12.9 °F 1017.2 in SSE 5.6 mph 5.6 mph 51 % 0.0 in 44.0 W/m2 SCT
19:41 23.5 °F 12.8 °F 1017.5 in SSW 7.4 mph 7.4 mph 51 % 0.0 in 40.0 W/m2 BKN
19:46 23.5 °F 13.1 °F 1017.5 in SSW 5.6 mph 5.6 mph 52 % 0.0 in 33.0 W/m2 BKN
19:51 23.4 °F 13.0 °F 1017.5 in WSW 5.6 mph 5.6 mph 52 % 0.0 in 30.0 W/m2 BKN
19:56 23.4 °F 13.3 °F 1017.5 in SSW 9.3 mph 9.3 mph 53 % 0.0 in 28.0 W/m2 BKN
20:01 23.4 °F 13.3 °F 1017.5 in South 9.7 mph 9.7 mph 53 % 0.0 in 28.0 W/m2 BKN
20:06 23.4 °F 13.6 °F 1017.5 in South 7.4 mph 7.7 mph 54 % 0.0 in 35.0 W/m2 BKN
20:11 23.4 °F 13.6 °F 1017.5 in South 9.7 mph 9.7 mph 54 % 0.0 in 47.0 W/m2 BKN
20:16 23.4 °F 13.8 °F 1017.2 in SSW 9.3 mph 9.3 mph 55 % 0.0 in 62.0 W/m2 BKN
20:21 23.4 °F 13.9 °F 1017.2 in SSW 7.4 mph 7.4 mph 55 % 0.0 in 69.0 W/m2 SCT
20:26 23.5 °F 13.9 °F 1017.2 in Calm     55 % 0.0 in 95.0 W/m2 CLR
20:31 23.5 °F 14.2 °F 1017.2 in Calm     56 % 0.0 in 69.0 W/m2 FEW
20:36 23.5 °F 14.2 °F 1016.8 in SSW 9.7 mph 9.7 mph 56 % 0.0 in 62.0 W/m2 SCT
20:41 23.5 °F 13.7 °F 1016.8 in South 13.0 mph 13.0 mph 54 % 0.0 in 58.0 W/m2 SCT
20:46 23.5 °F 13.7 °F 1016.5 in South 11.1 mph 11.1 mph 54 % 0.0 in 56.0 W/m2 SCT
20:51 23.5 °F 13.7 °F 1016.8 in South 13.0 mph 13.0 mph 54 % 0.0 in 46.0 W/m2 SCT
20:56 23.4 °F 13.3 °F 1016.8 in South 13.0 mph 13.0 mph 53 % 0.0 in 37.0 W/m2 BKN
21:01 23.4 °F 13.3 °F 1016.8 in South 9.7 mph 9.7 mph 53 % 0.0 in 33.0 W/m2 BKN
21:07 23.4 °F 13.3 °F 1016.8 in South 11.1 mph 11.1 mph 53 % 0.0 in 26.0 W/m2 BKN
21:12 23.4 °F 13.6 °F 1016.8 in SW 7.4 mph 7.4 mph 54 % 0.0 in 16.0 W/m2 BKN
21:17 23.3 °F 13.4 °F 1017.2 in SW 3.7 mph 3.9 mph 54 % 0.0 in 9.0 W/m2 BKN
21:22 23.2 °F 13.4 °F 1017.2 in SSW 7.4 mph 7.4 mph 54 % 0.0 in 5.0 W/m2 OVC
21:27 23.2 °F 13.6 °F 1017.2 in Calm     55 % 0.0 in 0.0 W/m2 OVC
21:32 23.2 °F 13.3 °F 1017.2 in Calm     54 % 0.0 in 0.0 W/m2 OVC
21:37 23.1 °F 13.6 °F 1017.2 in Calm     55 % 0.0 in 0.0 W/m2 CLR
21:42 23.1 °F 13.2 °F 1017.2 in Calm     54 % 0.0 in 0.0 W/m2 CLR
21:47 22.9 °F 13.1 °F 1017.5 in Calm     54 % 0.0 in 0.0 W/m2 CLR
21:52 22.9 °F 13.1 °F 1017.5 in Calm     54 % 0.0 in 0.0 W/m2 CLR
21:57 22.8 °F 13.1 °F 1017.5 in Calm     54 % 0.0 in 0.0 W/m2 CLR
22:02 22.8 °F 12.7 °F 1017.5 in Calm     53 % 0.0 in 0.0 W/m2 CLR
22:07 22.8 °F 12.7 °F 1017.5 in Calm     53 % 0.0 in 0.0 W/m2 CLR
22:12 22.7 °F 12.7 °F 1017.5 in Calm     53 % 0.0 in 0.0 W/m2 CLR
22:17 22.6 °F 12.8 °F 1017.5 in Calm     54 % 0.0 in 0.0 W/m2 CLR
22:22 22.4 °F 12.6 °F 1017.8 in Calm     54 % 0.0 in 0.0 W/m2 CLR
22:27 22.2 °F 12.7 °F 1017.8 in Calm     55 % 0.0 in 0.0 W/m2 CLR
22:32 22.0 °F 12.3 °F 1017.8 in Calm     54 % 0.0 in 0.0 W/m2 CLR
22:33 21.9 °F 12.2 °F 1017.8 in Calm     54 % 0.0 in 0.0 W/m2 CLR
22:38 21.8 °F 12.1 °F 1017.8 in Calm     54 % 0.0 in 0.0 W/m2 CLR
22:43 21.6 °F 11.9 °F 1018.2 in Calm     54 % 0.0 in 0.0 W/m2 CLR
22:48 21.5 °F 12.1 °F 1018.2 in Calm     55 % 0.0 in 0.0 W/m2 CLR
22:53 21.4 °F 12.0 °F 1018.2 in Calm     55 % 0.0 in 0.0 W/m2 CLR
22:58 21.3 °F 11.9 °F 1018.2 in Calm     55 % 0.0 in 0.0 W/m2 CLR
23:03 21.2 °F 12.1 °F 1018.2 in Calm     56 % 0.0 in 0.0 W/m2 CLR
23:08 21.1 °F 12.0 °F 1018.2 in Calm     56 % 0.0 in 0.0 W/m2 CLR
23:13 21.1 °F 11.9 °F 1018.2 in Calm     56 % 0.0 in 0.0 W/m2 CLR
23:18 21.0 °F 12.2 °F 1018.2 in Calm     57 % 0.0 in 0.0 W/m2 CLR
23:23 21.1 °F 12.4 °F 1018.2 in Calm     58 % 0.0 in 0.0 W/m2 CLR
23:28 21.2 °F 12.6 °F 1018.2 in Calm     58 % 0.0 in 0.0 W/m2 CLR
23:33 21.1 °F 12.2 °F 1018.2 in Calm     57 % 0.0 in 0.0 W/m2 CLR
23:38 20.7 °F 12.4 °F 1018.2 in Calm     59 % 0.0 in 0.0 W/m2 CLR
23:43 20.6 °F 12.6 °F 1018.2 in Calm     60 % 0.0 in 0.0 W/m2 CLR
23:48 20.6 °F 12.5 °F 1018.2 in Calm     60 % 0.0 in 0.0 W/m2 CLR
23:53 20.4 °F 12.6 °F 1018.2 in Calm     61 % 0.0 in 0.0 W/m2 CLR
23:58 20.3 °F 13.1 °F 1018.2 in Calm     63 % 0.0 in 0.0 W/m2 CLR
Lo Temps de Massalio
Compliments of Weather Underground - 1.25 mb